Time,TemperatureF,DewpointF,PressureIn,WindDirection,WindDirectionDegrees,WindSpeedMPH,WindSpeedGustMPH,Humidity,HourlyPrecipIn,Conditions,Clouds,dailyrainin,SoftwareType,DateUTC
2013-03-22 05:30:00,33.8,30.9,30.00,West,270,0.0,0.0,89,0.00,,,0.00,WUHU216HW,2013-03-22 12:30:00,
2013-03-22 05:35:00,33.8,30.9,30.00,West,270,0.0,0.0,89,0.00,,,0.00,WUHU216HW,2013-03-22 12:35:00,
2013-03-22 06:00:00,33.1,30.3,30.01,West,270,0.0,0.0,89,0.00,,,0.00,WUHU216HW,2013-03-22 13:00:00,
2013-03-22 06:05:00,33.1,30.3,30.01,West,270,0.0,0.0,89,0.00,,,0.00,WUHU216HW,2013-03-22 13:05:00,
2013-03-22 06:30:00,33.1,30.5,30.01,West,270,0.0,0.0,90,0.00,,,0.00,WUHU216HW,2013-03-22 13:30:00,
2013-03-22 06:35:00,33.1,30.5,30.01,West,270,0.0,0.0,90,0.00,,,0.00,WUHU216HW,2013-03-22 13:35:00,
2013-03-22 07:00:00,32.8,30.2,30.01,West,270,0.0,0.0,90,0.00,,,0.00,WUHU216HW,2013-03-22 14:00:00,
2013-03-22 07:05:00,32.8,30.2,30.01,West,270,0.0,0.0,90,0.00,,,0.00,WUHU216HW,2013-03-22 14:05:00,
2013-03-22 07:30:00,33.3,31.0,30.02,WSW,248,0.0,0.0,91,0.00,,,0.00,WUHU216HW,2013-03-22 14:30:00,
2013-03-22 07:35:00,33.3,31.0,30.02,WSW,248,0.0,0.0,91,0.00,,,0.00,WUHU216HW,2013-03-22 14:35:00,
2013-03-22 08:00:00,33.8,31.4,30.02,NE,45,0.0,0.0,91,0.00,,,0.00,WUHU216HW,2013-03-22 15:00:00,
2013-03-22 08:05:00,33.8,31.4,30.02,NE,45,0.0,0.0,91,0.00,,,0.00,WUHU216HW,2013-03-22 15:05:00,
2013-03-22 08:30:00,35.3,33.1,30.02,NE,45,0.0,0.0,92,0.00,,,0.00,WUHU216HW,2013-03-22 15:30:00,
2013-03-22 08:35:00,35.3,33.1,30.02,NE,45,0.0,0.0,92,0.00,,,0.00,WUHU216HW,2013-03-22 15:35:00,
2013-03-22 09:00:00,36.9,34.7,30.03,South,180,0.0,0.0,92,0.00,,,0.00,WUHU216HW,2013-03-22 16:00:00,
2013-03-22 09:05:00,36.9,34.7,30.03,South,180,0.0,0.0,92,0.00,,,0.00,WUHU216HW,2013-03-22 16:05:00,
2013-03-22 09:30:00,39.4,37.5,30.04,South,180,0.7,0.7,93,0.00,,,0.00,WUHU216HW,2013-03-22 16:30:00,
2013-03-22 09:35:00,39.4,37.5,30.04,South,180,0.7,0.7,93,0.00,,,0.00,WUHU216HW,2013-03-22 16:35:00,
2013-03-22 10:00:00,41.9,39.2,30.04,SSW,203,0.7,0.7,90,0.00,,,0.00,WUHU216HW,2013-03-22 17:00:00,
2013-03-22 10:05:00,41.9,39.2,30.04,SSW,203,0.7,0.7,90,0.00,,,0.00,WUHU216HW,2013-03-22 17:05:00,
2013-03-22 10:30:00,43.6,40.2,30.04,SSE,158,0.4,0.4,88,0.00,,,0.00,WUHU216HW,2013-03-22 17:30:00,
2013-03-22 10:35:00,43.6,40.2,30.04,SSE,158,0.4,0.4,88,0.00,,,0.00,WUHU216HW,2013-03-22 17:35:00,
2013-03-22 12:00:00,46.8,38.3,30.03,ENE,68,0.0,0.0,72,0.00,,,0.00,WUHU216HW,2013-03-22 19:00:00,
2013-03-22 12:05:00,46.8,38.3,30.03,ENE,68,0.0,0.0,72,0.00,,,0.00,WUHU216HW,2013-03-22 19:05:00,
2013-03-22 12:30:00,48.1,36.5,30.03,West,270,1.6,1.6,64,0.00,,,0.00,WUHU216HW,2013-03-22 19:30:00,
2013-03-22 12:35:00,48.1,36.5,30.03,West,270,1.6,1.6,64,0.00,,,0.00,WUHU216HW,2013-03-22 19:35:00,
2013-03-22 13:00:00,47.5,37.9,30.03,SW,225,0.7,0.7,69,0.00,,,0.00,WUHU216HW,2013-03-22 20:00:00,
2013-03-22 13:05:00,47.5,37.9,30.03,SW,225,0.7,0.7,69,0.00,,,0.00,WUHU216HW,2013-03-22 20:05:00,
2013-03-22 13:30:00,48.2,39.6,30.03,SSW,203,2.0,2.0,72,0.00,,,0.00,WUHU216HW,2013-03-22 20:30:00,
2013-03-22 13:35:00,48.2,39.6,30.03,SSW,203,2.0,2.0,72,0.00,,,0.00,WUHU216HW,2013-03-22 20:35:00,
2013-03-22 14:00:00,50.2,40.1,30.02,SW,225,0.2,0.2,68,0.00,,,0.00,WUHU216HW,2013-03-22 21:00:00,
2013-03-22 14:05:00,50.2,40.1,30.02,SW,225,0.2,0.2,68,0.00,,,0.00,WUHU216HW,2013-03-22 21:05:00,
2013-03-22 14:30:00,47.2,38.3,30.03,SW,225,0.0,0.0,71,0.00,,,0.00,WUHU216HW,2013-03-22 21:30:00,
2013-03-22 14:35:00,47.2,38.3,30.03,SW,225,0.0,0.0,71,0.00,,,0.00,WUHU216HW,2013-03-22 21:35:00,
2013-03-22 15:00:00,47.0,39.8,30.02,SSW,203,2.2,2.2,76,0.00,,,0.00,WUHU216HW,2013-03-22 22:00:00,
2013-03-22 15:05:00,47.0,39.8,30.02,SSW,203,2.2,2.2,76,0.00,,,0.00,WUHU216HW,2013-03-22 22:05:00,
2013-03-22 15:30:00,47.2,39.6,30.01,NW,315,1.1,1.1,75,0.00,,,0.00,WUHU216HW,2013-03-22 22:30:00,
2013-03-22 15:35:00,47.2,39.6,30.01,NW,315,1.1,1.1,75,0.00,,,0.00,WUHU216HW,2013-03-22 22:35:00,
2013-03-22 16:00:00,48.8,40.2,30.02,SSW,203,2.2,2.2,72,0.00,,,0.00,WUHU216HW,2013-03-22 23:00:00,
2013-03-22 16:05:00,48.8,40.2,30.02,SSW,203,2.2,2.2,72,0.00,,,0.00,WUHU216HW,2013-03-22 23:05:00,
2013-03-22 17:30:00,47.5,39.6,30.02,NW,315,0.2,0.2,74,0.00,,,0.00,WUHU216HW,2013-03-23 00:30:00,
2013-03-22 17:35:00,47.5,39.6,30.02,NW,315,0.2,0.2,74,0.00,,,0.00,WUHU216HW,2013-03-23 00:35:00,
2013-03-22 18:00:00,48.4,39.8,30.02,West,270,0.0,0.0,72,0.00,,,0.00,WUHU216HW,2013-03-23 01:00:00,
2013-03-22 18:05:00,48.4,39.8,30.02,West,270,0.0,0.0,72,0.00,,,0.00,WUHU216HW,2013-03-23 01:05:00,
2013-03-22 18:30:00,46.6,38.4,30.02,NNE,23,0.4,0.4,73,0.01,,,0.00,WUHU216HW,2013-03-23 01:30:00,
2013-03-22 18:35:00,46.6,38.4,30.02,NNE,23,0.4,0.4,73,0.01,,,0.00,WUHU216HW,2013-03-23 01:35:00,
2013-03-22 19:00:00,45.7,37.9,30.02,NNW,338,0.0,0.0,74,0.01,,,0.01,WUHU216HW,2013-03-23 02:00:00,
2013-03-22 19:05:00,45.7,37.9,30.02,NNW,338,0.0,0.0,74,0.01,,,0.01,WUHU216HW,2013-03-23 02:05:00,
2013-03-22 19:30:00,46.4,38.3,30.02,NNW,338,0.0,0.0,73,0.00,,,0.01,WUHU216HW,2013-03-23 02:30:00,
2013-03-22 19:35:00,46.4,38.3,30.02,NNW,338,0.0,0.0,73,0.00,,,0.01,WUHU216HW,2013-03-23 02:35:00,
2013-03-22 20:00:00,43.7,35.6,30.03,NNW,338,0.0,0.0,73,0.00,,,0.01,WUHU216HW,2013-03-23 03:00:00,
2013-03-22 20:05:00,43.7,35.6,30.03,NNW,338,0.0,0.0,73,0.00,,,0.01,WUHU216HW,2013-03-23 03:05:00,
2013-03-22 20:30:00,42.8,36.1,30.03,NNW,338,0.0,0.0,77,0.00,,,0.01,WUHU216HW,2013-03-23 03:30:00,
2013-03-22 20:35:00,42.8,36.1,30.03,NNW,338,0.0,0.0,77,0.00,,,0.01,WUHU216HW,2013-03-23 03:35:00,
2013-03-22 21:00:00,42.7,35.7,30.04,NW,315,0.0,0.0,76,0.00,,,0.01,WUHU216HW,2013-03-23 04:00:00,
2013-03-22 21:05:00,42.7,35.7,30.04,NW,315,0.0,0.0,76,0.00,,,0.01,WUHU216HW,2013-03-23 04:05:00,
2013-03-22 21:30:00,40.3,33.9,30.05,NW,315,0.0,0.0,78,0.00,,,0.01,WUHU216HW,2013-03-23 04:30:00,
2013-03-22 21:35:00,40.3,33.9,30.05,NW,315,0.0,0.0,78,0.00,,,0.01,WUHU216HW,2013-03-23 04:35:00,